Regional Weather Roundup
Issued by NWS Wakefield, VA

Home | Current Version | Previous Version | Graphics & Text | Print | Product List | Glossary On
Versions: 1 2 3 4 5 6 7 8 9 10 11 12 13 14 15 16 17 18 19 20 21 22 23 24 25 26 27 28 29 30 31 32 33 34 35 36 37 38 39 40 41 42 43 44 45 46 47 48 49 50
000
ASUS41 KAKQ 272110
RWRAKQ

REGIONAL WEATHER ROUNDUP
NATIONAL WEATHER SERVICE WAKEFIELD VA
400 PM EST TUE JAN 27 2015

Note: "fair" indicates few or no clouds below 12,000 feet with no
significant weather and/or obstructions to visibility. * = Denotes
station may not report precipitation (e.g., rain,snow,etc.),
thunder or fog.

VAZ042-051-052>054-056-272200-
NORTHERN VIRGINIA

CITY           SKY/WX    TMP DP  RH WIND       PRES   REMARKS
WASH NATIONAL  PTSUNNY   36  21  55 NW17G24   29.83R
DULLES         PTSUNNY   31  22  69 NW17G24   29.84R WCI  19
FORT BELVOIR   CLOUDY    33  23  65 NW17G24   29.84R WCI  22
QUANTICO       PTSUNNY   34  22  61 N14G25    29.85R WCI  25
FREDERICKSBRG* MOSUNNY   37  26  64 N12G17    29.83R
STAFFORD*      PTSUNNY   34  23  64 NW18      29.87R WCI  23
WARRENTON      PTSUNNY   36  28  74 NW13      29.83R
CULPEPER*      MOSUNNY   36  25  64 N13G21    29.84R
MANASSAS*      CLOUDY    34  25  69 NW18G24     N/A  WCI  23
LEESBURG*      CLOUDY    32  28  86 N13G22    29.85R WCI  22
WINCHESTER     CLOUDY    32  19  59 NW17      29.85R WCI  21
FRONT ROYAL*   CLOUDY    32  23  69 NW6       29.84R
LURAY*         CLOUDY    34  27  75 N3        29.84R
$$

VAZ048-049-060>072-079>083-272200-
CENTRAL AND SOUTH CENTRAL VIRGINIA

CITY           SKY/WX    TMP DP  RH WIND       PRES   REMARKS
RICHMOND       CLOUDY    38  24  57 N14       29.81R
CHESTERFIELD*  CLOUDY    36  19  51 NW10      29.82R
PETERSBURG*    CLOUDY    37  28  72 NW10      29.83R
HANOVER        CLOUDY    36  24  62 NW10G17   29.83R
TAPPAHANNOCK*  MOSUNNY   36  22  56 NW10      29.81R
QUINTON*       MOCLDY    36  24  62 NW6       29.80R
CHARLOTTSVILLE MOSUNNY   36  21  54 N9        29.82R
GORDONSVILLE*  CLOUDY    35  24  64 MISG      29.82R
ORANGE*        CLOUDY    36  27  69 NW6       29.84R
LOUISA*        CLOUDY    36  28  75 N7        29.81R
BUMPASS*       CLOUDY    35  26  71 NW6       29.81R
FARMVILLE*     CLOUDY    40  26  56 NE8       29.80R
CREWE*         CLOUDY    37  26  64 N5        29.81R
FORT PICKETT*  CLOUDY    35  29  77 N6        29.81R
CHASE CITY*    FAIR      43  17  34 W8G16     29.79R
CLARKSVILLE*   FAIR      41  14  33 NW8       29.79S
SOUTH HILL*    CLOUDY    36  27  70 N6        29.86R
LAWRENCEVILLE* CLOUDY    36  29  77 N6        29.81R
EMPORIA*       CLOUDY    34  30  86 W7        29.84R
$$

VAZ088>098-272200-
SOUTHEAST VIRGINIA

CITY           SKY/WX    TMP DP  RH WIND       PRES   REMARKS
NORFOLK        SUNNY     37  25  61 NW7       29.77R
VIRGINIA BEACH MOSUNNY   38  28  67 NW15      29.76R
NORFOLK NAVAL  MOSUNNY   38  26  62 NW10      29.78R
WEST POINT*    SUNNY     40  24  53 NW7       29.81R
SALUDA*        MOCLDY    35  26  68 NW9G18    29.78R
NEWPORT NEWS   SUNNY     40  26  57 NW14      29.78R
LANGLEY AFB    SUNNY     37  26  65 NW8       29.77R
FORT EUSTIS    MOSUNNY   37  28  71 N13       29.77R
WILLIAMSBURG*    N/A     39  28  65 N10G16    29.80R
HR EXEC AP*    FAIR      36  25  64 NW3       29.80S
FRANKLIN*      CLOUDY    35  27  74 NW13      29.81R
WAKEFIELD      CLOUDY    37  26  64 VRB6      29.80R
$$

VAZ020-022-025-037-045-272200-
WEST CENTRAL AND SOUTHWEST VIRGINIA

CITY           SKY/WX    TMP DP  RH WIND       PRES   REMARKS
STAUNTON*      SUNNY     33  20  58 N15       29.84R WCI  23
WAYNESBORO*    FAIR      31  20  63 N9        29.80R
HOT SPRINGS VA SUNNY     20  11  66 NW22G28   29.68R WCI   4
LYNCHBURG      SUNNY     41   6  23 VRB6      29.80R
DANVILLE       SUNNY     45  11  25 N9G20     29.81R
SOUTH BOSTON*  FAIR      43   8  23 NW12G20   29.81R
MARTINSVILLE   SUNNY     43   6  21 N10G20    29.85R
ROANOKE        SUNNY     39   3  22 NW24G30   29.84R
BLACKSBURG     SUNNY     33  -3  21 NW12      29.84R WCI  24
DUBLIN*        SUNNY     35   3  25 NW14G22   29.84R
MARION*        SUNNY     33   7  33 W21G29    29.86R WCI  20
HILLSVILLE*    SUNNY     32   6  33 NW18G29   29.79R WCI  20
RICHLANDS*     FAIR      29   7  39 NW8G16    29.87R
WISE*          PTSUNNY   30  18  59 NW8       29.92R
ABINGDON*      MOSUNNY   35  16  46 NW9       29.91R
$$

MDZ021>025-VAZ099-100-272200-
SOUTHERN MARYLAND AND THE DELMARVA PENINSULA

CITY           SKY/WX    TMP DP  RH WIND       PRES   REMARKS
PATUXENT RIVER MOSUNNY   35  24  64 NW18G26   29.78R WCI  24
BAY BRIDGE APT   N/A     36  21  55 NW17      29.77S
LEONARDTOWN    MOSUNNY   32  23  69 W10G17    29.80R WCI  24
DOVER          MOSUNNY   33  20  57 NW17G23   29.73R WCI  22
GEORGETOWN     PTSUNNY   35  20  54 NW8G17    29.73R
EASTON         MOSUNNY   37  25  60 NW18G26   29.79R
CAMBRIDGE      MOSUNNY   37  27  65 NW9G22    29.75S
SALISBURY      MOSUNNY   37  25  61 NW12      29.73S
OCEAN CITY     CLOUDY    33  25  72 NW10G18   29.73R WCI  25
WALLOPS ISLAND CLOUDY    34  26  72 NW10      29.75R
ACCOMACK*      CLOUDY    34  28  80 NW17      29.76R WCI  23
$$

NCZ012>017-030>032-272200-
NORTH CENTRAL AND EASTERN NORTH CAROLINA

CITY           SKY/WX    TMP DP  RH WIND       PRES   REMARKS
ROANOKE RAPIDS CLOUDY    36  28  75 N9        29.82R
RALEIGH        MOSUNNY   44  12  27 W7        29.81R
ELIZABETH CITY CLOUDY    35  28  75 NW12      29.78R
AHOSKIE*       CLOUDY    34  28  77 NW6       29.82R
EDENTON*       CLOUDY    35  30  82 N10       29.80R
CURRITUCK*     PTSUNNY   36  27  70 W6        29.77S
KILL DEVIL HLS CLOUDY    35  30  83 NW7       29.75R
MANTEO         CLOUDY    36  28  75 NW7       29.77R
CAPE HATTERAS  CLOUDY    35  31  85 NW9G18    29.76R
TARBORO*       CLOUDY    38  28  67 NW9       29.83R
GOLDSBORO      CLOUDY    40  34  79 N5        29.81R
WASHINGTON     CLOUDY    36  29  77 N8        29.81R
GREENVILLE     PTSUNNY   39  28  65 N10G18    29.85R
NEW BERN       CLOUDY    40  27  59 NW13      29.82R
WILMINGTON     CLOUDY    42  28  57 NW14      29.82R
$$

VAZ048-272200-
ELSEWHERE

CITY           SKY/WX    TMP DP  RH WIND       PRES   REMARKS
HARRISBURG PA  PTSUNNY   31  17  56 NW18      29.78S WCI  19
BALTIMORE      MOSUNNY   35  20  54 NW18G26   29.78R WCI  24
ANNAPOLIS      SUNNY     36  21  54 NW10G20   29.77S
ANDREWS AFB    PTSUNNY   33  24  68 NW16      29.79R WCI  22
PHILADELPHIA   PTSUNNY   34  11  38 NW22      29.72R WCI  22
HENDERSON NC   SUNNY     42  10  27 NW7       29.80R
GREENSBORO     MOSUNNY   45   8  22 NW13      29.80R
ROCKY MOUNT    SUNNY     40  26  57 N8        29.82R
$$

VAZ100-272200-
MARINE

STATION/POSITION TIME  TEMP    WIND        PRES    WAVE   SWELL
                       AIR SEA DIR/SP/G            HT/PER HT/PER
                 (UTC) (F)     (DEG/KT/KT) (MB)    (FT/S) (FT/S)
BRANDYWINE LGT   2100   32 37  330/ 20/ 23 1005.9S
CAPE MAY NJ      2100   33 38  310/  7/ 20 1005.1S
LEWES DE         2100   34 36  320/ 20/ 23 1006.0R
15NM E FENWICK I 2100   33 42              1004.9R  10/13
OCEAN-CITY-INLET 2100   33 38  340/ 13/ 16 1006.0R
WACHAPREAGUE VA  2100   35 40  320/  3/ 15 1007.3R
THOMAS POINT MD  2100   35 37  310/ 21/ 24 1008.8F
GOOSES REEF MD   2100   36 37  VRB 17/ 21  1007.2R   2/ 2
COVE POINT MD    2100   34     340/ 16/ 19 1007.8R
SOLOMONS ISLAND  2100      38                N/A
BISHOPS HEAD MD  2100   35 37  320/ 16/ 20 1007.3R
PINEY POINT MD   2100          340/ 19/ 20   N/A
POTOMAC MD       2100   36 38  330/ 16/ 19 1007.4R   2/ 3
CAMBRIDGE MD     2100   35 36  310/ 13/ 17 1007.4R
LEWISETTA VA     2100   35 38  320/ 14/ 18 1008.5R
RAPPAHANNOCK LGT 2100          320/ 20/ 21 1008.2R
STINGRAY PT      2100   36 39  340/ 14/ 16 1008.8R   2/ 3
YORK RVR RNG VA  2100   37     330/ 16/ 19 1007.4R
JAMESTOWN VA     2100   35 42  360/ 10/ 14   N/A     1
DOMINION TERM VA 2100   36     330/ 12/ 15 1008.2R
KIPTOPEKE VA     2100      45  340/ 19/ 22   N/A
CHES BAY BRIDGE  2100   36 42  290/ 15/ 17 1007.6R
CAPE HENRY VA    2100   36     310/ 17/ 22 1006.4R
CHESAPEAKE LGHT  2000   35     330/ 22/ 24 1007.5R
WILLOUBY STN VA  2100   36     300/ 12/ 15 1008.5R
S CRANEY ISL VA  2100          310/ 11/ 15 1008.1R
CAPE HENRY BUOY  2000      45                N/A     7/13   3/13
1ST LANDING BUOY 2100   37 42  310/ 16/ 19 1007.6R   4/ 6
CAPE CHARLES BUO 2000      42                N/A     6/13   7/13
OFFSHORE WE BUOY 2100      46                N/A     9/12   8/12
64NM E OF VA BCH 2100   38 51  330/ 23/ 29 1005.3R  15/13  13/13
DUCK PIER NC     2100   35 43  330/ 16/ 20 1006.7R
44100 DUCK FRF   2100      46                N/A    10/13   7/13
44056 DUCK FRF   2100      44                N/A     9/13   7/13
OREGON INLET NC  2100   35 45  320/  9/ 14 1007.6R
HATTERAS NC      2100   36 48  320/ 17/ 19 1008.1R


USA.gov is the U.S. government's official web portal to all federal, state and local government web resources and services.